Content
SEND FEEDBACK

Daily
Averages
Monthly
Summary
United States of America

CHICAGO, ILLINOIS


Home > North America > United States > Illinois
Elevation: 674 feet     Latitude: 41 59N     Longitude: 087 54W

WEATHER
 
SELECT A DAY
Number of Records: 194,984;   Date Range: 7/8/95 - 8/28/14
 
SHARE

PRINT THIS DATA

[ ← Previous Day ]
WEATHER ALMANAC - JULY 15, 2013
[ Next Day → ]
[ °C ]   °F
We're sorry. There is no daily almanac available for Chicago, Illinois on July 15, 2013.
WEATHER BY HOUR - JULY 15, 2013
[ °C ]   °F
Local TimeTemperatureDewpointHumidityBarometerVisibilityWind DirectionWind SpeedGust SpeedPrecipitationEventsConditions
1:52 AM72.0 °F66.9 °F84 %30.23 in9.0 miCalmClear
2:52 AM73.0 °F68.0 °F84 %30.23 in9.0 miCalmClear
3:52 AM72.0 °F68.0 °F87 %30.24 in8.0 miNNW (340°)3.5 mphClear
4:52 AM72.0 °F68.0 °F87 %30.24 in7.0 miCalmClear
5:52 AM72.0 °F68.0 °F87 %30.25 in5.0 miCalmClear
6:52 AM75.9 °F70.0 °F82 %30.26 in7.0 miCalmClear
7:52 AM80.1 °F71.1 °F74 %30.26 in8.0 miCalmClear
8:52 AM82.9 °F72.0 °F69 %30.27 in9.0 miCalmClear
9:52 AM87.1 °F73.0 °F63 %30.27 in10.0 miCalmClear
10:52 AM88.0 °F73.0 °F61 %30.27 in10.0 miEast (80°)5.8 mphPartly Cloudy
11:52 AM87.1 °F71.1 °F59 %30.26 in10.0 miENE (70°)6.9 mphMostly Cloudy
12:52 PM82.9 °F73.0 °F72 %30.27 in10.0 miENE (60°)5.8 mph0.01 inOvercast
1:52 PM86.0 °F73.0 °F65 %30.26 in10.0 miEast (80°)5.8 mphPartly Cloudy
2:52 PM87.1 °F71.1 °F59 %30.25 in10.0 miEast (100°)8.1 mphScattered Clouds
3:52 PM88.0 °F72.0 °F59 %30.25 in10.0 miENE (70°)5.8 mphMostly Cloudy
4:52 PM86.0 °F72.0 °F63 %30.24 in10.0 miEast (80°)4.6 mphMostly Cloudy
5:52 PM84.0 °F72.0 °F67 %30.23 in10.0 miENE (70°)3.5 mph0.00 inOvercast
6:52 PM84.0 °F72.0 °F67 %30.23 in10.0 miEast (80°)4.6 mphMostly Cloudy
7:52 PM82.0 °F72.0 °F71 %30.23 in10.0 miEast (90°)5.8 mphPartly Cloudy
8:52 PM80.1 °F72.0 °F76 %30.24 in10.0 miCalmMostly Cloudy
9:52 PM79.0 °F73.0 °F82 %30.26 in9.0 miCalmOvercast
10:52 PM79.0 °F73.0 °F82 %30.26 in10.0 miCalmClear
11:52 PM78.1 °F72.0 °F81 %30.26 in10.0 miSSE (150°)3.5 mphClear
Hourly data recorded from KPWK, located miles away from Chicago, Illinois







STORIES FROM OUR PARTNERS